Tracking 29892 objects as of 21-Nov-2024
HD Live streaming from Space Station
objects crossing your sky now

DELTA 1 DEB

Track DELTA 1 DEB now!
10-day predictions


NORAD ID: 10830
Int'l Code: 1976-077CA
Perigee: 1,492.6 km
Apogee: 1,633.9 km
Inclination: 101.9 °
Period: 117.2 minutes
Semi major axis: 7934 km
RCS: 0.0466 m2 (small)
Launch date: July 29, 1976
Source: United States (US)
Launch site: AIR FORCE WESTERN TEST RANGE (AFWTR)

Note: This is SATELLITE DEBRIS
Your satellite tracking list
Your tracking list is empty




NASA's NSSDC Master Catalog

Two Line Element Set (TLE):
1 10830U 76077CA  24325.85408707  .00000007  00000-0  42638-3 0  9997
2 10830 101.8819  83.2004 0089050 169.2867 343.5843 12.28403114166212
Source of the keplerian elements: AFSPC